7 * 24
多渠道服务支持
STARLINK-5071是美国SpaceX公司星链(Starlink)星座的卫星,于2023年1月31日发射。星链计划旨在构建全球卫星互联网,该卫星部署在近地轨道,配备激光通信终端,可支持高速数据传输,为全球偏远地区、海洋等场景提供宽带互联网接入服务,是SpaceX大规模构建太空互联网基础设施的组成部分,支撑天地一体化网络覆盖。
美国
(US)
| 数据来源 | 国际轨道数据 |
| 星历时间: | 2026-09-05T00:07:26+0800 14小时前 查看轨道信息 |
| 半长轴: | 6950.22km |
| 偏心率: | 0.0003375 |
| 轨道倾角: | 70.000° |
| 近地点辐角 | 267.613° |
| 升交点赤经 | 333.244° |
| 平近点角 | 92.465° |
| 近地点: | 569.737km |
| 远地点: | 574.429km |
| 周期: | 96.108分钟 |
| 每日圈数: | 14.983213 |